Regional Weather Roundup
Issued by NWS Wilmington, NC

Home | Current Version | Previous Version | Text Only | Print | Product List | Glossary On
Versions: 1 2 3 4 5 6 7 8 9 10 11 12 13 14 15 16 17 18 19 20 21 22 23 24 25 26 27 28 29 30 31 32 33 34 35 36 37 38 39 40 41 42 43 44 45 46 47 48 49 50
000
ASUS42 KILM 201610
RWRILM
RWRILM
REGIONAL HOURLY WEATHER ROUNDUP
NATIONAL WEATHER SERVICE WILMINGTON NC
1200 PM EDT SAT SEP 20 2014

NOTE: "FAIR" INDICATES FEW OR NO CLOUDS BELOW 12,000 FEET WITH NO
SIGNIFICANT WEATHER AND/OR OBSTRUCTIONS TO VISIBILITY.

...............WFO WILMINGTON COUNTY WARNING AREA...............

......COASTAL NC AND SC COUNTIES......

CITY           SKY/WX    TMP DP  RH WIND       PRES   REMARKS
WILMINGTON     CLOUDY    76  67  73 N14       30.10F
SOUTHPORT      CLOUDY    74  65  73 NE10G18   30.08S
N MYRTLE BEACH CLOUDY    73  65  75 N10G20    30.08S
MYRTLE BEACH   PTSUNNY   73  63  68 NE14      30.08F

......INLAND NC AND SC COUNTIES.......

CITY           SKY/WX    TMP DP  RH WIND       PRES   REMARKS
LUMBERTON      CLOUDY    74  63  68 N13       30.13F
ELIZABETHTOWN  CLOUDY    75  64  70 N5        30.13F
WHITEVILLE     CLOUDY    73  64  72 N7        30.11S
FLORENCE       CLOUDY    72  62  71 NE12      30.13F
DARLINGTON     PTSUNNY   73  61  64 NE13      30.16F

....................REST OF NORTH CAROLINA......................

.........EASTERN NC.........

CITY           SKY/WX    TMP DP  RH WIND       PRES   REMARKS
CAPE HATTERAS  CLOUDY    72  71  97 N6        30.10F
JACKSONVILLE   CLOUDY    75  64  69 N13       30.12F
MOREHEAD CITY  CLOUDY    75  71  87 N15       30.09F
KENANSVILLE    CLOUDY    75  62  65 NE12      30.15F
NEW BERN       CLOUDY    77  68  73 NE12      30.13F
ELIZABETH CITY PTSUNNY   77  68  73 NE16      30.15F

.........CENTRAL NC.........

CITY           SKY/WX    TMP DP  RH WIND       PRES   REMARKS
RALEIGH DURHAM MOSUNNY   75  59  57 E7        30.20S
ROCKY MOUNT    PTSUNNY   74  61  63 NE8       30.19F
ROANOKE RAPIDS NOT AVBL
FAYETTEVILLE   PTSUNNY   73  61  65 NE14      30.16F
HOFFMAN        NOT AVBL

.........WESTERN NC.........

CITY           SKY/WX    TMP DP  RH WIND       PRES   REMARKS
CHARLOTTE      MOSUNNY   76  59  55 N12G18    30.20F
GREENSBORO     MOSUNNY   74  57  55 VRB5      30.21F
HICKORY        NOT AVBL
BOONE          NOT AVBL
ASHEVILLE      NOT AVBL

.....................REST OF SOUTH CAROLINA.....................

.........EASTERN SC.........

CITY           SKY/WX    TMP DP  RH WIND       PRES   REMARKS
CHARLESTON     CLOUDY    73  65  75 N12       30.06S
BEAUFORT MCAS  CLOUDY    72  67  84 W18       30.05S
HILTON HEAD    NOT AVBL

.........CENTRAL SC.........

CITY           SKY/WX    TMP DP  RH WIND       PRES   REMARKS
COLUMBIA       PTSUNNY   79  59  50 NE9       30.13R
ORANGEBURG     CLOUDY    73  60  63 NE14G21   30.12S
SUMTER SHAW    PTSUNNY   72  59  62 NE14      30.13S

.........WESTERN SC.........

CITY           SKY/WX    TMP DP  RH WIND       PRES   REMARKS
GREENVILLE     NOT AVBL
ROCK HILL      SUNNY     75  61  61 NE8       30.19F
ANDERSON       SUNNY     76  63  64 NE12      30.18F
CLEMSON        NOT AVBL
GREENWOOD      SUNNY     77  63  61 N12       30.18F


...................COASTAL AND OFFSHORE REPORTS..................

................LOCAL PIERS AND NC RESERVE................


STATION/POSITION TIME  SKY/WX   TEMP    WIND        PRES    VSBY
                                AIR SEA DIR/SP/G
                 (UTC)          (F)     (DEG/KT/KT) (MB)    (MI)
JOHNY MRCER PIER 1600            74 79   20/ 15/ 18 1018.5S
NC RESRV MASNBRO 1500            73      20/  9     1019.0R
OCEAN CREST PIER 1600            75 80   10/ 14/ 19 1017.5F
SPRINGMAID  PIER 1600            73 79   10/ 14/ 20 1018.3F


................COASTAL AND OFFSHORE BUOYS................


STATION/POSITION TIME  SKY/WX   TEMP    WIND        PRES    VSBY
                                AIR SEA DIR/SP/G
                 (UTC)          (F)     (DEG/KT/KT) (MB)    (MI)
DIMNDSHOAL 41025 1600            81     110/ 14/ 16 1018.5F
WVE H/P(F/S)=  8/10 WND WVE H/P(F/S)=  3/ 6 SWL H/P/D(F/S/D)=  7/ 70/10

CAPE LOOKOUT     1500            72      20/ 18/ 23 1019.2F
ONSLOW BAY 41036 1500            77 83   50/ 23/ 27 1018.4S
5 WRITEBCH 41038 1500            71 80   40/ 21/ 25   N/A
MASONBORO  41110 1600               80                N/A
WVE H/P(F/S)=  5/ 6 WND WVE H/P(F/S)=  5/ 6

WILM HARBR 41108 1600               80                N/A
WVE H/P(F/S)=  5/ 4 WND WVE H/P(F/S)=  5/ 4

27WRITEBCH 41037 1500            73 81   40/ 23/ 27 1017.5R
FRYING PAN 41013 NOT AVBL
SUNST NRSH 41024 1500            73      30/ 17/ 19 1018.1F
CAPRS NRSH 41029 1500            73      40/ 23/ 25   N/A
EDISTO     41004 1600            78 82   30/ 25/ 37 1014.7F
WVE H/P(F/S)=  7/ 7 WND WVE H/P(F/S)=  7/ 7 SWL H/P/D(F/S/D)=  3/ 9



..........OFFSHORE BUOYS BEYOND 100 NM OFFSHORE...........
.....IN A TRIANGLE---HAT TO BERMUDA TO BAHAMAS TO HAT.....


STATION/POSITION TIME  SKY/WX   TEMP    WIND        PRES    VSBY
                                AIR SEA DIR/SP/G
                 (UTC)          (F)     (DEG/KT/KT) (MB)    (MI)
150E HAT   41001 NOT AVBL
W BERMUDA  41048 1452            80 81  110/ 17/ 21 1019.0
WVE H/P(F/S)=  6/ 8 WND WVE H/P(F/S)=  5/ 5 SWL H/P/D(F/S/D)=  5/ 20/ 8

ATLANTIC S 41049 1542            84 85  110/ 10/ 14 1020.1F
WVE H/P(F/S)=  3/ 8 WND WVE H/P(F/S)=  2/ 5 SWL H/P/D(F/S/D)=  3/140/ 8

E BAHAMAS  41046 1502            83 84  110/ 14/ 16 1017.5R
WVE H/P(F/S)=  4/ 6 WND WVE H/P(F/S)=  3/ 6 SWL H/P/D(F/S/D)=  3/120/ 8

NE BAHAMAS 41047 1457            82 83  170/ 12/ 14 1016.9
WVE H/P(F/S)=  3/ 8 WND WVE H/P(F/S)=  2/ 5 SWL H/P/D(F/S/D)=  2/100/ 8

120E CANVRL41010 1600            81 84  220/ 17/ 21 1012.3F
WVE H/P(F/S)=  5/ 7 WND WVE H/P(F/S)=  3/ 5 SWL H/P/D(F/S/D)=  5/ 60/ 7


END



USA.gov is the U.S. government's official web portal to all federal, state and local government web resources and services.